Regional Weather Roundup
Issued by NWS

Home | Current Version | Previous Version | Graphics & Text | Print | Product List | Glossary On
Versions: 1 2 3 4 5 6 7 8 9 10 11 12 13 14 15 16 17 18 19 20 21 22 23 24 25 26 27 28 29 30 31 32 33 34 35 36 37 38 39 40 41 42 43 44 45 46 47 48 49 50
000
ASUS43 KBIS 241310
RWRND

NORTH DAKOTA REGIONAL WEATHER ROUNDUP
NATIONAL WEATHER SERVICE BISMARCK ND
700 AM CST FRI FEB 24 2017

NOTE: "FAIR" INDICATES FEW OR NO CLOUDS BELOW 12,000 FEET WITH NO
SIGNIFICANT WEATHER AND/OR OBSTRUCTIONS TO VISIBILITY.


NDZ001>003-009>011-017-241400-
NORTHWEST NORTH DAKOTA

CITY           SKY/WX    TMP DP  RH WIND       PRES   REMARKS
WILLISTON      CLOUDY    18  15  88 CALM      30.14S
MINOT          FAIR      17  11  77 NW5       30.14R WCI  10
$$

NDZ018>021-031>035-040>046-241400-
SOUTHWEST NORTH DAKOTA

CITY           SKY/WX    TMP DP  RH WIND       PRES   REMARKS
BISMARCK       CLOUDY    19  13  77 NW7       30.14R WCI  10
DICKINSON      FAIR       4   0  83 CALM      30.07R
GARRISON         N/A     19  14  81 N6        30.12S WCI  11
HETTINGER ARPT CLOUDY    13   8  81 CALM      30.09S
$$

NDZ004>008-012>016-024-026-027-054-241400-
NORTHEAST NORTH DAKOTA

CITY           SKY/WX    TMP DP  RH WIND       PRES   REMARKS
GRAND FORKS    CLOUDY    17   7  64 NE7       30.14S WCI   8
GRND FRKS AFB  CLOUDY    16  13  86 E6        30.14F WCI   8
DEVILS LAKE    FAIR      14  11  87 NW12      30.11S WCI   0
$$

NDZ022-023-025-028>030-036>039-047>053-241400-
SOUTHEAST NORTH DAKOTA

CITY           SKY/WX    TMP DP  RH WIND       PRES   REMARKS
FARGO          CLOUDY    19  11  70 N12       30.10F WCI   7
JAMESTOWN      FAIR      17  14  88 NW6       30.09R WCI   9
$$





USA.gov is the U.S. government's official web portal to all federal, state and local government web resources and services.